Temp
6 6 6 6 6 7 7 7 7 7 7 8 9 9 10 10 11 11 11 11 11 11 10 10 10 10 10 10 9 9 9 8 8 8 8 8 7 7
5 4 4 4 4 4 4 5 5 6 6 7 7 7 8 9 9 10 10 11 10 10 9 9 9 9 10 9 9 8 8 8 8 8 7 7 7 7
3 3 3 3 3 3 3 3 4 4 4 5 5 5 6 7 7 8 9 10 10 9 9 9 9 9 9 9 8 8 8 7 7 7 7 7 6 5
2 2 2 2 2 2 2 2 3 3 3 3 4 4 4 5 5 6 7 8 8 8 8 8 8 8 8 9 8 7 7 6 6 6 5 5 5 4
1 1 1 1 1 1 1 1 1 2 2 2 3 3 4 4 4 4 5 6 7 8 7 7 7 7 8 8 7 7 7 6 5 5 4 4 3 3
-1 -0 -0 0 1 1 1 1 1 1 1 2 2 3 3 3 3 3 4 5 6 6 6 7 7 7 8 7 6 6 6 5 4 4 4 3 3 2
-1 -1 -0 0 1 0 0 -0 0 0 0 1 1 2 2 2 3 3 4 5 4 6 6 6 6 5 5 5 6 5 4 4 3 3 3 2 2 1
-1 -1 -1 -0 -0 -1 -1 -1 -1 -1 -0 -0 0 1 1 2 2 3 3 3 1 3 4 3 4 4 5 5 5 4 4 3 3 3 2 2 0 -0
-1 -1 -1 -1 -1 -2 -2 -1 -1 -1 -1 -1 -0 0 1 2 2 3 3 3 1 2 4 -0 1 2 2 1 4 3 2 2 2 1 1 1 -0 -0
-1 -1 -1 -1 -2 -2 -2 -1 -2 -1 -1 -0 -1 -1 0 2 2 3 3 1 1 1 1 -2 -2 -2 -1 -0 3 2 1 1 0 0 0 -1 -1 -2
-1 -1 -1 -2 -2 -2 -2 -2 -2 -1 1 1 1 -0 0 1 2 2 -0 -0 -1 -2 -1 -2 -3 -3 -3 -2 -1 -0 -0 -1 -1 -1 -1 -2 -3 -4
-1 -2 -2 -2 -2 -2 -2 -2 -2 -1 -0 0 -0 -0 1 2 3 2 1 -0 -1 -2 -2 -2 -3 -2 -3 -4 -3 -3 -3 -2 -2 -2 -2 -3 -4 -5
-2 -1 -2 -2 -2 -2 -2 -2 -2 -1 -0 -0 0 0 1 1 1 1 0 0 -0 -2 -2 -2 -3 -3 -3 -4 -4 -4 -4 -5 -4 -4 -5 -6 -7 -5
-2 -1 -2 -2 -2 -2 -2 -1 -1 -1 -1 -1 -1 -2 -1 -1 -1 -0 -0 -1 -1 -1 -3 -3 -3 -3 -3 -4 -4 -4 -4 -5 -5 -6 -6 -7 -7 -7
-1 -1 -1 -1 -1 -2 -2 -1 -2 -2 -2 -2 -3 -3 -2 -2 -1 -1 -1 -1 -2 -3 -3 -2 -3 -4 -4 -3 -4 -4 -5 -6 -6 -6 -7 -7 -7 -6
-1 -1 -1 -1 -1 -1 -2 -2 -2 -2 -2 -2 -2 -2 -2 -2 -3 -2 -3 -3 -3 -3 -3 -3 -3 -4 -4 -4 -4 -5 -5 -5 -6 -6 -7 -7 -7 -6
-1 -1 -1 -1 -1 -2 -2 -2 -2 -2 -2 -2 -2 -2 -2 -3 -3 -3 -3 -3 -3 -4 -4 -4 -4 -4 -4 -4 -5 -5 -5 -6 -6 -7 -7 -7 -7 -6
-1 -1 -2 -2 -2 -2 -2 -2 -2 -2 -2 -2 -2 -2 -3 -3 -3 -3 -3 -3 -3 -4 -3 -3 -4 -4 -4 -4 -5 -5 -5 -5 -6 -6 -7 -7 -7 -6
-0 -1 -2 -2 -2 -2 -2 -2 -2 -2 -2 -3 -3 -3 -2 -3 -3 -3 -3 -3 -3 -3 -3 -3 -4 -3 -3 -4 -5 -5 -5 -5 -5 -6 -6 -6 -6 -6
-2 -2 -2 -2 -3 -3 -3 -2 -2 -2 -3 -2 -2 -3 -3 -3 -3 -3 -3 -3 -3 -3 -3 -3 -3 -3 -3 -4 -4 -4 -4 -5 -5 -5 -5 -5 -5 -6
-2 -2 -2 -2 -2 -3 -3 -3 -3 -3 -3 -3 -2 -2 -2 -2 -3 -3 -3 -3 -3 -3 -3 -3 -3 -3 -4 -4 -4 -5 -5 -5 -5 -5 -5 -5 -7 -7
-3 -3 -3 -3 -3 -3 -3 -3 -3 -3 -3 -3 -3 -3 -3 -3 -3 -3 -3 -3 -4 -4 -4 -4 -3 -4 -4 -4 -5 -6 -6 -5 -5 -5 -5 -5 -6 -7
-4 -4 -3 -3 -3 -3 -3 -3 -3 -3 -3 -3 -3 -3 -3 -3 -3 -3 -4 -4 -4 -4 -4 -4 -3 -4 -4 -5 -5 -6 -7 -7 -6 -6 -7 -6 -6 -5
Height
775 774 773 771 769 768 765 762 756 742 726 733 732 733 733 729 726 726 726 726 725 725 727 729 732 736 737 744 753 761 772 777 786 794 802 811 820 822
771 770 768 766 764 763 761 759 757 750 730 732 729 726 730 723 722 721 721 720 721 720 722 725 727 727 729 731 743 750 767 776 784 790 801 811 813 819
768 765 763 762 758 756 753 750 747 746 735 724 728 724 725 719 717 715 715 714 713 714 716 719 721 723 724 724 735 747 755 773 780 792 801 809 810 817
763 760 758 756 752 749 747 744 741 739 731 719 721 716 720 714 711 712 710 708 708 708 709 712 715 719 721 725 731 742 753 770 780 790 799 806 810 817
759 757 754 751 748 745 742 738 733 730 726 718 712 711 711 707 704 704 704 703 702 703 705 707 710 714 713 720 726 733 751 765 778 785 793 803 810 817
755 752 749 747 745 740 735 730 724 720 718 710 706 703 704 702 699 698 696 694 696 697 700 702 704 707 710 715 724 733 748 757 771 781 790 800 811 815
750 747 744 741 739 735 729 724 719 712 707 704 698 697 694 695 692 693 693 690 691 693 696 699 702 708 711 716 721 736 745 753 767 778 788 799 806 817
746 742 739 736 732 727 722 716 712 704 698 694 689 688 686 687 687 688 689 688 692 693 695 703 706 711 714 721 729 738 745 756 767 777 786 795 807 814
744 740 735 732 728 721 714 706 698 692 685 681 677 677 679 680 683 684 687 688 691 695 696 708 711 715 720 726 725 737 748 758 768 777 785 795 806 813
742 739 734 729 725 718 708 697 689 680 671 665 661 664 671 676 678 681 685 687 694 699 701 715 721 723 731 734 734 744 752 760 768 778 788 797 806 812
739 737 732 726 722 714 703 696 686 672 662 654 651 658 667 672 676 679 684 689 699 705 708 714 728 733 739 740 745 751 759 765 770 780 790 799 806 811
737 734 729 725 717 709 702 697 686 673 664 661 659 663 668 671 674 679 684 691 698 710 714 721 728 731 746 754 756 760 765 770 778 783 790 799 805 807
736 732 727 724 714 706 703 698 688 680 673 672 671 669 671 675 679 683 688 690 697 704 711 714 726 729 737 753 761 767 771 775 779 787 795 800 806 809
735 732 728 724 716 708 707 699 691 684 681 679 680 679 678 682 686 689 693 697 700 703 711 716 724 728 735 751 760 769 774 780 783 789 796 803 811 813
735 733 726 723 719 713 708 702 697 691 689 689 689 689 688 690 692 696 700 704 708 714 719 723 726 733 742 748 755 766 774 783 786 791 798 804 809 814
736 733 726 724 720 715 712 708 706 700 697 698 698 698 698 699 701 703 706 711 715 722 726 730 734 737 744 753 759 765 772 775 784 792 798 805 813 816
737 731 727 726 723 718 716 714 712 710 705 705 705 705 705 706 710 712 714 717 721 726 732 737 741 745 749 751 762 769 773 779 786 792 799 806 812 816
737 733 732 730 725 723 721 720 718 716 715 713 712 713 714 714 716 718 720 723 727 732 736 740 744 749 756 762 765 766 775 782 788 795 800 805 811 816
738 736 734 734 732 731 726 725 724 723 721 720 719 719 720 721 722 724 726 728 732 736 740 743 748 751 756 762 769 774 776 783 789 796 800 806 810 816
739 738 736 735 733 735 732 730 728 728 728 726 726 726 725 726 727 729 730 733 736 741 744 748 752 756 759 763 769 776 781 785 790 796 801 806 812 816
742 742 739 740 738 739 737 735 733 733 733 732 731 731 731 731 732 734 736 738 742 745 748 751 755 758 762 767 773 779 785 788 792 796 800 805 809 815
744 744 743 743 742 743 742 740 738 737 737 738 738 736 736 737 738 740 742 744 747 750 753 756 758 761 765 769 774 779 784 789 794 797 802 805 808 811
748 746 747 747 746 746 746 745 744 744 743 742 742 742 742 742 744 745 747 750 752 755 757 759 762 765 769 772 776 781 786 790 794 799 803 806 808 810
Wind_Speed
19 19 21 22 23 22 21 21 15 13 18 22 25 26 30 27 25 29 31 31 33 31 29 33 37 42 39 40 48 42 37 35 34 31 28 26 23 21
19 20 21 23 24 24 24 23 22 21 15 23 24 25 30 36 31 26 30 29 30 29 29 31 32 35 40 59 52 46 37 35 32 30 29 27 26 22
20 20 22 22 23 23 23 24 24 24 18 31 28 28 32 31 31 23 29 32 30 27 27 29 31 36 32 47 49 49 41 37 34 31 30 28 26 25
19 20 22 23 25 25 26 26 27 27 28 22 30 26 33 34 32 31 28 33 30 28 27 28 30 41 45 47 55 48 43 38 37 36 31 29 26 25
19 21 25 25 26 26 27 27 28 28 28 27 27 27 26 23 24 27 30 34 34 33 27 26 26 35 41 46 56 51 47 43 40 40 35 31 27 26
22 23 24 24 27 30 30 30 30 28 29 27 27 25 24 23 22 23 22 29 27 27 26 21 23 33 52 53 55 55 51 47 43 40 36 31 28 27
24 23 22 25 27 31 32 31 31 29 28 26 25 23 21 18 16 19 21 15 13 18 15 19 26 39 49 54 53 50 52 48 46 41 37 33 29 27
22 24 25 26 27 30 32 34 37 36 33 27 25 20 22 19 19 18 11 4 2 16 19 15 26 34 38 41 48 49 49 49 45 41 38 35 31 28
22 23 24 24 27 30 34 35 37 36 38 40 33 29 23 21 18 19 18 12 5 15 32 18 19 25 25 44 56 54 50 46 43 40 36 32 29 24
21 20 19 25 27 29 31 32 33 32 30 32 36 35 25 17 21 20 14 18 19 19 23 8 19 24 28 36 47 47 44 41 40 36 32 30 25 22
20 18 19 22 25 28 30 29 28 29 25 18 17 23 23 18 21 20 22 24 8 6 11 26 17 28 26 32 41 41 40 40 38 35 31 27 24 23
19 20 19 21 22 25 26 25 22 26 21 12 6 9 15 21 22 26 30 21 18 9 13 13 31 24 8 18 34 35 33 32 32 29 27 25 23 22
18 21 20 21 21 23 21 21 19 16 15 12 11 13 18 22 21 21 22 30 20 7 28 27 17 18 10 19 23 31 34 31 28 26 23 24 22 24
15 17 18 19 20 21 22 18 18 18 20 19 18 17 20 19 17 17 18 21 8 18 34 27 19 20 26 20 16 27 29 32 32 29 25 24 22 16
13 13 12 15 19 22 22 21 19 20 21 21 19 20 22 23 22 22 20 16 20 27 22 22 26 28 30 22 22 28 31 28 32 30 27 31 20 16
11 12 14 15 16 20 23 22 21 21 21 18 20 22 23 23 25 26 28 26 27 22 19 20 26 33 26 23 30 28 29 15 32 28 30 25 20 17
11 15 18 17 19 20 21 21 20 18 19 20 19 20 22 22 22 23 22 20 21 20 22 25 24 25 27 39 25 24 22 27 28 29 30 24 19 18
14 15 16 16 17 17 18 18 19 17 16 16 18 19 18 19 19 20 21 19 19 18 20 22 25 26 24 16 22 29 21 25 28 28 26 22 19 17
15 15 15 17 18 18 17 18 17 16 14 14 16 17 19 19 18 17 18 19 19 18 19 22 21 21 9 6 18 20 23 26 26 25 25 19 17 21
16 15 15 17 17 15 18 18 17 16 15 14 13 15 17 17 17 17 17 18 19 20 20 20 18 16 15 10 9 18 22 28 25 22 22 18 18 20
15 16 17 15 19 17 17 17 18 18 16 16 14 13 14 17 18 19 20 22 22 18 14 14 15 23 21 23 18 18 21 24 27 25 23 21 20 15
14 17 18 18 17 16 17 17 18 19 19 17 16 17 17 17 18 19 17 16 18 20 19 19 21 24 21 21 17 18 22 22 20 19 19 14 14 9
15 16 16 16 16 17 17 18 18 18 18 19 20 20 20 20 18 19 22 23 22 20 20 21 21 22 20 21 22 19 26 25 24 23 17 13 9 7
Wind_Direction
302 301 304 302 302 301 298 286 281 294 287 298 290 285 294 306 306 276 268 268 269 269 267 262 257 244 226 220 192 189 189 185 182 182 182 186 184 175
301 301 298 300 297 296 296 293 292 292 289 292 290 292 284 282 289 290 270 264 267 266 270 267 267 243 237 201 189 179 183 183 183 180 180 179 179 173
304 306 307 306 305 303 298 292 283 276 274 288 286 290 284 286 289 290 280 266 265 268 269 266 262 254 213 185 183 179 178 186 179 182 176 177 166 157
313 314 309 310 308 303 298 292 288 280 274 278 283 278 274 274 277 287 285 271 266 264 274 266 265 251 236 209 186 178 172 178 175 172 165 162 150 150
311 309 305 305 298 294 291 287 285 284 282 283 285 282 280 271 272 276 275 270 269 268 263 262 259 255 213 192 174 168 168 166 164 159 154 150 146 148
308 308 302 299 297 297 293 288 286 282 280 275 275 275 274 275 272 268 274 249 239 252 259 272 261 220 188 178 171 166 167 162 161 160 159 157 156 154
313 309 301 302 304 305 303 299 292 284 277 273 270 269 263 263 250 260 269 208 190 220 238 248 208 170 161 158 159 162 161 160 162 161 165 167 166 165
312 312 313 313 315 316 313 306 292 280 273 266 264 256 253 245 248 241 203 147 72 148 129 123 148 145 142 151 161 163 162 164 164 164 167 168 168 165
322 320 320 318 321 318 313 306 303 292 275 262 257 247 244 236 232 220 204 170 125 149 138 79 114 125 147 151 167 163 163 164 164 163 162 162 168 171
330 329 321 319 322 324 320 320 316 311 299 278 250 243 232 232 222 215 179 132 138 138 128 94 107 105 130 137 161 163 164 163 162 159 162 165 171 173
336 333 325 325 329 338 337 325 323 336 341 325 243 236 213 222 211 173 135 127 116 71 112 115 113 102 106 119 144 161 162 161 158 160 162 168 172 168
335 333 333 328 342 353 348 335 334 351 6 18 103 174 192 203 208 195 160 142 129 83 136 111 130 115 75 108 129 134 144 158 160 161 164 170 175 166
333 341 340 341 357 9 1 3 7 15 48 78 91 118 144 149 158 165 160 159 148 98 157 138 150 117 101 132 132 140 143 142 148 151 154 154 156 163
336 343 350 3 10 21 13 19 36 57 63 69 68 67 99 110 129 146 150 151 155 158 157 154 148 138 140 133 135 144 144 148 149 145 147 146 138 143
357 352 1 14 20 27 25 32 40 57 66 59 62 71 92 112 122 121 128 127 124 138 147 152 152 142 143 151 143 145 141 145 153 152 152 155 167 154
17 21 33 34 32 37 38 39 41 58 69 73 81 86 97 96 100 117 112 112 110 113 138 151 154 146 134 139 145 144 147 146 160 161 157 158 164 153
39 42 37 33 32 29 37 41 44 47 63 76 79 85 88 94 96 107 111 112 116 117 119 135 143 148 151 151 147 148 144 144 155 157 157 157 168 170
49 40 37 32 34 29 33 36 45 52 58 72 85 89 90 95 100 107 115 110 114 120 123 129 129 123 125 130 155 149 142 148 154 159 161 154 168 182
57 49 47 41 33 33 41 42 43 56 70 76 81 97 103 103 104 105 116 115 118 117 129 130 131 135 131 124 133 153 146 149 152 159 164 162 165 175
62 51 56 53 51 46 49 52 57 62 68 76 89 91 105 109 110 106 110 120 113 118 116 126 129 135 134 133 121 140 168 158 158 152 155 157 170 175
58 56 52 59 59 59 58 58 65 66 71 75 80 92 105 105 100 109 108 111 118 117 111 119 115 143 137 133 114 121 152 174 174 162 158 154 136 143
74 61 62 62 62 57 65 69 72 73 70 74 76 86 98 104 103 107 115 119 111 106 102 117 138 144 139 135 124 117 114 130 142 152 161 166 159 151
76 74 70 66 67 67 67 68 73 77 82 86 87 87 89 87 100 105 104 104 107 105 103 98 101 125 115 122 121 118 124 125 131 128 112 131 160 165